Location: Bratislava
(48.1500°N, 17.1170°E)
Time: 20:16:38
(UTC+02:00)

Envisat - Pass Details

Date: 11 May 2026
Orbit: 761 x 763 km, 98.4° (Epoch: 10 June)

Event Time Altitude Azimuth Distance (km) Brightness Sun altitude
Rises 03:25:06 0° 16° (NNE) 3,236 7.5 -15.3°
Reaches altitude 10° 03:27:26 10° 18° (NNE) 2,306 6.6 -15.0°
Maximum altitude 03:32:30 69° 102° (ESE) 815 3.2 -14.5°
Enters shadow 03:36:49 14° 185° (S) 2,011 4.7 -14.0°
